Martinsburg, WV

7:55 PM EDT on June 25, 2017 (GMT -0400)
Eastern W Va Regional-Shepherd

Weather History for KMRB - February, 2011

Change the Weather History Date:

Sunday, February 20, 2011

  Actual Average Record
Temperature  
Mean Temperature 37 °F 35 °F  
Max Temperature 46 °F 44 °F 70 °F (1939)
Min Temperature 28 °F 25 °F 0 °F (1979)
Degree Days  
Heating Degree Days 28 30  
Month to date heating degree days 569 640  
Since 1 July heating degree days 3699 3723  
Cooling Degree Days 0 0  
Month to date cooling degree days 0 0  
Year to date cooling degree days 0 0  
Moisture  
Dew Point 16 °F    
Average Humidity 54    
Maximum Humidity 89    
Minimum Humidity 19    
Precipitation  
Precipitation T in 0.08 in 2.25 in (1927)
Month to date precipitation 0.90 1.64  
Year to date precipitation 2.04 4.08  
Sea Level Pressure  
Sea Level Pressure 30.18 in    
Wind  
Wind Speed 5 mph (NW)    
Max Wind Speed 21 mph    
Max Gust Speed 30 mph    
Visibility 10 miles    
Events Rain    
T = Trace of Precipitation, MM = Missing Value Source: NWS Daily Summary

Daily Weather History Graph

Daily Weather History Graph

Search for Another Location

Airport or City:

Trip Planner

Search our weather history database for the weather conditions in past years. The results will help you decide how hot, cold, wet, or windy it might be!

Date:

Astronomy

Feb. 20, 2011 Rise Set
Actual Time 6:57 AM EST 5:54 PM EST
Civil Twilight 6:30 AM EST 6:21 PM EST
Nautical Twilight 5:59 AM EST 6:52 PM EST
Astronomical Twilight 5:28 AM EST 7:23 PM EST
Moon 9:11 PM EST (2/20) 7:53 AM EST (2/20)
Length of Visible Light 11h 50m
Length of Day
10h 56m
Waning Gibbous, 92% of the Moon is Illuminated
Feb 20
Waning Gibbous
Feb 24
Last Quarter
Mar 4
New
Mar 12
First Quarter
Mar 19
Full

Hourly Weather History & Observations

Time (EST) Temp. Windchill Dew Point Humidity Pressure Visibility Wind Dir Wind Speed Gust Speed Precip Events Conditions
12:53 AM 34.0 °F 27.2 °F 12.9 °F 42% 30.26 in 10.0 mi NW 8.1 mph 17.3 mph N/A   Clear
1:53 AM 33.1 °F 23.9 °F 14.0 °F 46% 30.27 in 10.0 mi NW 12.7 mph 20.7 mph N/A   Clear
2:53 AM 32.0 °F 22.5 °F 14.0 °F 48% 30.28 in 10.0 mi NW 12.7 mph 20.7 mph N/A   Clear
3:53 AM 30.9 °F 23.5 °F 14.0 °F 50% 30.28 in 10.0 mi NNW 8.1 mph 16.1 mph N/A   Clear
4:53 AM 28.9 °F 21.1 °F 14.0 °F 54% 30.29 in 10.0 mi NNW 8.1 mph - N/A   Clear
5:53 AM 28.9 °F 21.1 °F 14.0 °F 54% 30.28 in 10.0 mi NNW 8.1 mph - N/A   Clear
6:53 AM 28.9 °F 18.2 °F 14.0 °F 54% 30.27 in 10.0 mi WNW 13.8 mph - N/A   Clear
7:53 AM 30.2 °F - 14.0 °F 51% 30.29 in 10.0 mi Calm Calm - N/A   Clear
8:53 AM 34.0 °F 29.8 °F 14.0 °F 44% 30.32 in 10.0 mi North 4.6 mph - N/A   Clear
9:53 AM 36.0 °F - 12.9 °F 39% 30.31 in 10.0 mi Calm Calm - N/A   Clear
10:53 AM 37.9 °F - 10.9 °F 33% 30.29 in 10.0 mi Calm Calm - N/A   Clear
11:53 AM 41.0 °F 39.0 °F 10.9 °F 29% 30.27 in 10.0 mi Variable 3.5 mph - N/A   Clear
12:53 PM 43.0 °F 40.3 °F 10.9 °F 27% 30.24 in 10.0 mi WSW 4.6 mph - N/A   Clear
1:53 PM 45.0 °F 42.6 °F 9.0 °F 23% 30.20 in 10.0 mi ESE 4.6 mph - N/A   Clear
2:53 PM 45.0 °F - 8.1 °F 22% 30.16 in 10.0 mi Calm Calm - N/A   Overcast
3:53 PM 46.0 °F - 6.1 °F 20% 30.12 in 10.0 mi Calm Calm - N/A   Overcast
4:53 PM 45.0 °F - 8.1 °F 22% 30.10 in 10.0 mi Calm Calm - N/A   Overcast
5:53 PM 44.1 °F 42.5 °F 9.0 °F 24% 30.08 in 10.0 mi ESE 3.5 mph - N/A   Overcast
6:53 PM 42.1 °F 39.2 °F 24.1 °F 49% 30.08 in 10.0 mi WSW 4.6 mph 21.9 mph N/A   Overcast
7:53 PM 39.0 °F 36.8 °F 30.9 °F 73% 30.06 in 10.0 mi SE 3.5 mph - 0.00 in Rain Light Rain
8:53 PM 37.0 °F 31.0 °F 32.0 °F 82% 30.04 in 10.0 mi SE 8.1 mph - 0.00 in   Overcast
9:53 PM 36.0 °F 32.1 °F 30.9 °F 82% 29.98 in 10.0 mi ESE 4.6 mph - 0.00 in   Overcast
10:53 PM 36.0 °F - 32.0 °F 86% 29.93 in 10.0 mi Calm Calm - 0.00 in   Overcast
11:53 PM 37.0 °F - 33.1 °F 86% 29.87 in 10.0 mi Calm Calm - 0.00 in   Overcast